Le nostre stazioni meteo in Italia

Pubblicità
Il mio iltempo24.it
Treviso/Istrana, Italia (16098): Temperatura & dewpoint: 14.04.2018 20:00:00 - 20.04.2018 20:00:00 (CEST)Treviso/Istrana, Italia (16098): velocità del vento: 14.04.2018 20:00:00 - 20.04.2018 20:00:00 (CEST)Treviso/Istrana, Italia (16098): direzione del vento: 14.04.2018 20:00:00 - 20.04.2018 20:00:00 (CEST)Treviso/Istrana, Italia (16098): reduced air pressure: 14.04.2018 20:00:00 - 20.04.2018 20:00:00 (CEST)Treviso/Istrana, Italia (16098): visibility: 14.04.2018 20:00:00 - 20.04.2018 20:00:00 (CEST)
Data & Tempo tt [°C] td [°C] ff [km/h] ff [kn] dd ppp [hPa] vv [km]
20.04.2018 20:00:00 25,0 12,2 5 3 SO 1020,2 30
20.04.2018 19:00:00 26,4 11,0 4 2 OSO 1020,9 30
20.04.2018 18:00:00 26,4 11,7 5 3 SO 1020,9 30
20.04.2018 17:00:00 26,4 9,3 9 5 SO 1021,3 30
20.04.2018 16:00:00 27,0 11,5 4 2 O 1022,1 30
20.04.2018 15:00:00 26,6 11,1 9 5 SO 1022,9 30
20.04.2018 14:00:00 26,4 13,2 9 5 OSO 1023,6 30
20.04.2018 13:00:00 26,0 11,4 8 4 O 1024,2 30
20.04.2018 12:00:00 26,0 12,8 8 4 OSO 1024,6 30
20.04.2018 11:00:00 24,6 14,7 8 4 ESE 1024,6 30
20.04.2018 10:00:00 22,4 12,7 4 2 NNO 1024,7 30
20.04.2018 09:00:00 19,4 13,4 9 5 NE 1024,4 30
20.04.2018 08:00:00 14,8 11,6 8 4 N 1024,7 35
20.04.2018 07:00:00 13,0 9,8 8 4 N 1024,7 30
20.04.2018 06:00:00 13,0 9,6 9 5 N 1024,5 20
20.04.2018 05:00:00 13,2 8,9 8 4 N 1024,5 20
20.04.2018 04:00:00 13,8 10,8 9 5 NNE 1024,6 20
20.04.2018 03:00:00 14,0 10,4 5 3 N 1024,9 20
20.04.2018 02:00:00 14,6 11,6 4 2 NE 1025,2 25
20.04.2018 01:00:00 15,8 11,2 5 3 N 1025,0 25
20.04.2018 00:00:00 17,8 11,6 9 5 N 1025,0 25
19.04.2018 23:00:00 18,8 11,6 8 4 NNO 1025,1 25
19.04.2018 22:00:00 19,6 11,4 5 3 NO 1025,2 20
19.04.2018 21:00:00 19,6 10,9 4 2 OSO 1025,3 20
19.04.2018 20:00:00 22,8 10,9 4 2 SSO 1025,1 15
19.04.2018 19:00:00 24,8 10,7 4 2 SO 1025,8 15
19.04.2018 18:00:00 24,6 9,7 5 3 ESE 1025,8 15
19.04.2018 17:00:00 24,6 9,0 8 4 E 1026,1 18
19.04.2018 16:00:00 24,8 9,1 8 4 E 1026,8 18
19.04.2018 15:00:00 24,8 7,0 11 6 ESE 1027,5 18
19.04.2018 14:00:00 24,2 6,9 13 7 E 1027,3 18
19.04.2018 13:00:00 23,4 7,1 11 6 E 1028,1 18
19.04.2018 12:00:00 23,2 8,5 13 7 E 1028,2 20
19.04.2018 11:00:00 22,0 10,8 8 4 NNE 1028,4 18
19.04.2018 10:00:00 20,2 10,9 9 5 N 1028,6 15
19.04.2018 09:00:00 18,4 13,0 9 5 N 1028,7 15
19.04.2018 08:00:00 13,0 9,8 8 4 N 1028,3 20
19.04.2018 07:00:00 12,4 9,0 9 5 N 1028,4 20
19.04.2018 06:00:00 12,0 9,2 8 4 N 1028,5 15
19.04.2018 05:00:00 12,0 9,0 11 6 N 1029,3 10
19.04.2018 04:00:00 13,0 9,6 11 6 N 1029,3 10
19.04.2018 03:00:00 16,0 9,9 8 4 E 1029,2 10
19.04.2018 02:00:00 15,0 7,3 13 7 E 1029,3 10
19.04.2018 01:00:00 14,2 11,7 13 7 E 1028,5 10
19.04.2018 00:00:00 15,0 11,2 9 5 NNE 1028,4 10
18.04.2018 23:00:00 15,4 11,0 8 4 N 1028,1 10
18.04.2018 22:00:00 16,0 11,0 8 4 N 1027,7 10
18.04.2018 21:00:00 18,0 10,9 4 2 NNO 1027,1 10
18.04.2018 20:00:00 21,6 11,9 5 3 SSO 1027,3 15
18.04.2018 19:00:00 22,6 10,7 9 5 S 1027,1 15
18.04.2018 18:00:00 23,6 12,3 11 6 SSO 1027,0 18
18.04.2018 17:00:00 24,6 12,2 13 7 S 1027,0 20
18.04.2018 16:00:00 24,8 10,7 5 3 OSO 1027,1 20
18.04.2018 15:00:00 24,4 11,0 8 4 OSO 1027,6 20
18.04.2018 14:00:00 23,6 11,3 8 4 OSO 1027,9 20
18.04.2018 13:00:00 22,6 11,7 4 2 S 1028,2 25
18.04.2018 12:00:00 22,0 11,4 5 3 S 1028,4 25
18.04.2018 11:00:00 20,6 11,0 13 7 SE 1028,3 30
18.04.2018 10:00:00 19,8 11,6 9 5 ESE 1028,1 35
18.04.2018 09:00:00 16,8 10,9 8 4 NE 1027,7 35
18.04.2018 08:00:00 12,6 10,0 8 4 N 1027,3 35
18.04.2018 07:00:00 10,6 8,5 0 0 N 1026,8 35
18.04.2018 06:00:00 11,0 9,2 0 0 N 1026,3 20
18.04.2018 05:00:00 11,2 9,8 8 4 N 1025,9 15
18.04.2018 04:00:00 12,2 10,4 0 0 N 1026,8 15
18.04.2018 03:00:00 13,4 11,5 0 0 N 1025,7 15
18.04.2018 02:00:00 13,6 11,8 0 0 N 1025,5 15
18.04.2018 01:00:00 14,6 12,3 8 4 N 1025,3 15
18.04.2018 00:00:00 14,8 12,7 5 3 N 1024,9 15
17.04.2018 23:00:00 15,6 13,3 5 3 NNO 1024,4 20
17.04.2018 22:00:00 16,6 12,8 0 0 N 1023,7 20
17.04.2018 21:00:00 18,6 13,5 5 3 ONO 1023,0 20
17.04.2018 20:00:00 20,6 11,3 8 4 OSO 1021,5 15
17.04.2018 19:00:00 21,0 11,6 9 5 SSO 1021,2 10
17.04.2018 18:00:00 21,6 10,7 5 3 ONO 1021,2 15
17.04.2018 17:00:00 22,0 9,5 5 3 O 1021,2 15
17.04.2018 16:00:00 23,0 12,0 13 7 S 1021,2 15
17.04.2018 15:00:00 23,0 10,1 4 2 SE 1021,1 15
17.04.2018 14:00:00 23,0 12,6 4 2 S 1021,3 15
17.04.2018 13:00:00 22,0 12,8 8 4 E 1021,4 25
17.04.2018 12:00:00 21,2 12,4 4 2 ESE 1021,4 25
17.04.2018 11:00:00 19,6 13,1 0 0 N 1021,1 25
17.04.2018 10:00:00 17,0 13,0 4 2 N 1020,9 15
17.04.2018 09:00:00 15,0 12,7 5 3 NNE 1020,9 15
17.04.2018 08:00:00 12,0 10,1 8 4 N 1020,3 15
17.04.2018 07:00:00 13,0 11,1 4 2 NO 1018,3 12
17.04.2018 06:00:00 15,0 13,4 0 0 N 1017,2 15
17.04.2018 05:00:00 15,0 13,4 5 3 N 1017,1 15
17.04.2018 04:00:00 15,0 13,4 8 4 NE 1015,2 15
17.04.2018 03:00:00 15,0 13,4 11 6 NE 1015,0 15
17.04.2018 02:00:00 14,8 12,8 16 9 NE 1014,7 15
17.04.2018 01:00:00 14,8 12,8 8 4 N 1013,5 15
17.04.2018 00:00:00 14,8 12,8 8 4 N 1013,5 15
16.04.2018 23:00:00 14,8 12,8 9 5 O 1013,3 15
16.04.2018 22:00:00 16,0 14,0 8 4 N 1013,2 15
16.04.2018 21:00:00 16,0 14,0 8 4 NNO 1012,5 8
16.04.2018 20:00:00 16,2 13,3 9 5 N 1012,4 8
16.04.2018 19:00:00 18,0 15,4 18 10 NNE 1012,0 6
16.04.2018 18:00:00 21,2 14,1 11 6 NNO 1010,9 8
16.04.2018 17:00:00 22,8 13,6 15 8 SSE 1009,9 8
16.04.2018 16:00:00 22,8 14,9 21 11 SSE 1009,8 10
16.04.2018 15:00:00 24,0 13,5 8 4 ESE 1010,0 12
16.04.2018 14:00:00 22,8 14,9 8 4 ESE 1009,8 15
16.04.2018 13:00:00 22,6 13,9 9 5 E 1010,0 15
16.04.2018 12:00:00 22,4 13,7 5 3 ESE 1010,1 15
16.04.2018 11:00:00 21,0 12,4 0 0 N 1010,0 20
16.04.2018 10:00:00 19,2 13,2 9 5 E 1009,6 20
16.04.2018 09:00:00 17,2 13,1 8 4 N 1009,5 15
16.04.2018 08:00:00 14,0 11,4 9 5 N 1009,3 10
16.04.2018 07:00:00 13,8 11,1 13 7 NNO 1009,3 10
16.04.2018 06:00:00 14,0 11,7 8 4 N 1009,5 10
16.04.2018 05:00:00 13,0 10,7 9 5 N 1009,1 10
16.04.2018 04:00:00 13,0 10,7 5 3 NNO 1008,9 10
16.04.2018 03:00:00 14,0 11,9 9 5 ENE 1009,4 10
16.04.2018 02:00:00 14,0 11,9 0 0 N 1009,4 10
16.04.2018 01:00:00 14,0 12,0 0 0 N 1009,4 10
16.04.2018 00:00:00 14,0 12,4 0 0 N 1009,9 10
15.04.2018 23:00:00 15,0 13,4 4 2 SO 1009,8 10
15.04.2018 22:00:00 16,0 14,4 8 4 ENE 1009,7 8
15.04.2018 21:00:00 17,0 13,5 24 13 ENE 1009,6 8
15.04.2018 20:00:00 18,8 14,9 21 11 NE 1009,3 10
15.04.2018 19:00:00 20,0 13,9 11 6 NE 1009,2 12
15.04.2018 18:00:00 20,0 14,8 4 2 N 1009,9 12
15.04.2018 17:00:00 20,2 14,1 8 4 SE 1010,0 12
15.04.2018 16:00:00 20,4 14,7 9 5 ENE 1010,2 12
15.04.2018 15:00:00 21,0 14,2 13 7 NE 1011,4 12
15.04.2018 14:00:00 22,0 13,9 13 7 E 1012,1 15
15.04.2018 13:00:00 22,0 12,8 16 9 E 1012,1 15
15.04.2018 12:00:00 20,6 13,1 13 7 ENE 1012,3 15
15.04.2018 11:00:00 19,4 11,4 9 5 NNE 1012,8 20
15.04.2018 10:00:00 17,0 11,5 9 5 N 1013,2 20
15.04.2018 09:00:00 16,0 10,5 5 3 NNE 1013,2 20
15.04.2018 08:00:00 14,2 7,0 13 7 N 1012,9 30
15.04.2018 07:00:00 13,2 6,8 11 6 N 1013,4 30
15.04.2018 06:00:00 11,6 6,3 9 5 N 1014,2 30
15.04.2018 05:00:00 11,8 6,7 9 5 N 1016,2 50
15.04.2018 04:00:00 11,4 7,5 9 5 N 1017,0 50
15.04.2018 03:00:00 11,4 6,9 8 4 N 1017,0 50
15.04.2018 02:00:00 11,8 6,5 8 4 NNE 1016,2 50
15.04.2018 01:00:00 10,6 8,0 5 3 N 1017,1 50
15.04.2018 00:00:00 11,0 8,4 8 4 N 1017,2 50
14.04.2018 23:00:00 11,4 7,7 4 2 N 1017,5 50
14.04.2018 22:00:00 13,4 8,9 4 2 O 1018,0 50
14.04.2018 21:00:00 16,0 8,2 2 1 N 1018,1 50
14.04.2018 20:00:00 17,4 8,0 5 3 NE 1018,0 40

tt = Temperatura
td = dewpoint
ff = velocità del vento
dd = direzione del vento
ppp = reduced air pressure
vv = visibility

Stazioni seguenti

WeatherPro
AMSI
MeteoEarth